Regional Weather Roundup
Issued by NWS

Home | Current Version | Previous Version | Graphics & Text | Print | Product List | Glossary On
Versions: 1 2 3 4 5 6 7 8 9 10 11 12 13 14 15 16 17 18 19 20 21 22 23 24 25 26 27 28 29 30 31 32 33 34 35 36 37 38 39 40 41 42 43 44 45 46 47 48 49 50
000
ASUS45 KBOU 281407
RWRCO

WEATHER ROUNDUP FOR COLORADO
NATIONAL WEATHER SERVICE DENVER/BOULDER CO
700 AM MST WED JAN 28 2015

NOTE: "FAIR" INDICATES FEW OR NO CLOUDS BELOW 12000 FEET WITH NO
SIGNIFICANT WEATHER AND/OR OBSTRUCTIONS TO VISIBILITY.

COZ001>005-013-030-031-281500-
...NORTHWEST COLORADO...

CITY           SKY/WX    TMP DP  RH WIND       PRES   REMARKS
CRAIG          MOCLDY    31  30  96 E6        30.22R WCI  25
HAYDEN         PTCLDY    30  28  93 NE5       30.22R WCI  25
MEEKER         PTCLDY    38  29  70 W7        30.23S
MOUNT WERNER   NOT AVBL
STEAMBOAT SPGS MOCLDY    31  27  85 SE3       30.21S
WALDEN         CLOUDY    32  28  86 SW12      30.18R WCI  23
$$

COZ006>008-011-281500-
...WEST CENTRAL VALLEYS...

CITY           SKY/WX    TMP DP  RH WIND       PRES   REMARKS
GRAND JUNCTION PTCLDY    25  24  96 NE5       30.27R WCI  19
MONTROSE       MOCLDY    27  24  89 CALM      30.28R
EAGLE          PTCLDY    25  25 100 CALM      30.27S
RIFLE          CLEAR     26  23  88 S6        30.27R WCI  19
DELTA          PTCLDY    28  24  87 SW3       30.28R
NUCLA          MOCLDY    34  30  86 E3        30.31R
$$

COZ017>023-064>068-281500-
...SOUTHWEST COLORADO...

CITY           SKY/WX    TMP DP  RH WIND       PRES   REMARKS
DURANGO        CLEAR     28  25  88 NE7       30.27S WCI  21
CORTEZ         PTCLDY    26  24  92 CALM      30.29R
PAGOSA SPRINGS CLEAR     27  26  99 CALM      30.29S
TELLURIDE      NOT AVBL
WOLF CREEK PAS NOT AVBL
$$

COZ009-010-012-014-032>034-037-058>063-281500-
...CENTRAL COLORADO...

CITY           SKY/WX    TMP DP  RH WIND       PRES   REMARKS
ASPEN          PTCLDY    26  18  71 S5        30.23S WCI  20
BUENA VISTA    PTCLDY    38  18  43 W13G21    30.19R
COPPER MTN     PTCLDY    23  18  80 MISG      30.24S
BERTHOUD PASS  FAIR      16  10  79 W45G63    30.15S WCI  -8
COTTONWOOD PAS PTCLDY    34  18  51 W13G31    30.21R WCI  25
GUNNISON       PTCLDY    10   5  79 CALM      30.32S
KREMMLING      PTCLDY    21  16  79 N5        30.22S WCI  15
LEADVILLE      CLOUDY    28  15  58 NE8       30.23S WCI  20
MONARCH PASS   CLOUDY    21  19  93 MISG      30.36S
SALIDA         NOT AVBL
SUNLIGHT       PTCLDY    27  23  86 CALM        N/A
WILKERSON PASS PTCLDY    27  14  59 W16G28    30.19S WCI  14
$$

COZ069>075-281500-
...SAN LUIS VALLEY/SANGRE DE CRISTO MOUNTAINS...

CITY           SKY/WX    TMP DP  RH WIND       PRES   REMARKS
ALAMOSA        PTCLDY    15  11  83 W5        30.25S WCI   8
LA VETA PASS   NOT AVBL
SAGUACHE       CLOUDY    30  25  80 NW5       30.25S WCI  25
$$

COZ035-036-038>040-281500-
...NORTHERN COLORADO FRONT RANGE...

CITY           SKY/WX    TMP DP  RH WIND       PRES   REMARKS
DENVER INTL AP MOCLDY    50  20  30 W21G30    30.03R
DMNS CITY PARK   N/A     51  17  26 W12G21    30.04R
AURORA         MOCLDY    42  22  44 SW12      30.05R
FRONT RANGE AP NOT AVBL
ERIE MUNI ARPT PTCLDY    45  19  35 W12       30.02R
BOULDER MUN AP PTCLDY    50  21  32 W10       30.03R
CENTENNIAL     PTCLDY    38  22  52 S6        30.05R
BROOMFIELD     PTCLDY    50  18  27 W33G40    30.06
FORT COLLINS   PTCLDY    54  23  30 W17G25    30.03R
LONGMONT       PTCLDY    45  23  41 NW13G18   30.02R
$$

COZ041-046-047-076>085-087-088-281500-
...PIKES PEAK/PALMER DIVIDE AND SOUTHERN FOOTHILLS...

CITY           SKY/WX    TMP DP  RH WIND       PRES   REMARKS
COLO. SPRINGS  MOCLDY    49  18  29 NW15G24   30.06R
A. F. ACADEMY  PTCLDY    39  19  44 NE10      30.09R
ELLICOTT       MOCLDY   N/A N/A N/A NW8       30.06R
FALCON         MOCLDY    45  16  31 NW24G31   30.07S
FORT CARSON    MOCLDY    39  23  53 E7        30.03S
LIMON          CLOUDY    37  24  59 NW12      30.03R
MONUMENT HILL  MOCLDY    36  21  55 W12       30.08S
TRINIDAD       CLOUDY    43  25  49 W8        30.08R
$$

COZ042>045-048>051-090-091-281500-
...NORTHEAST COLORADO...

CITY           SKY/WX    TMP DP  RH WIND       PRES   REMARKS
GREELEY ARPT   MOCLDY    41  27  56 NW20      29.99S
AKRON          MOCLDY    39  28  64 W15       29.99R
BURLINGTON     CLOUDY    38  29  70 W8        29.98R
WRAY           MOCLDY    36  31  79 W12       29.95R
STERLING       MOCLDY    34  32  93 S7        29.97R WCI  28
HOLYOKE        MOCLDY    52  32  46 NW14G21   29.93R
FORT MORGAN    MOCLDY    32  26  77 S6        30.00S WCI  27
$$

COZ086-089-092>099-281500-
...SOUTHEAST COLORADO...

CITY           SKY/WX    TMP DP  RH WIND       PRES   REMARKS
PUEBLO         CLOUDY    54  21  27 NW29G40   30.00R
LA JUNTA       CLOUDY    49  27  42 W18       30.00S
LAMAR          CLOUDY    41  29  62 SW6       30.00R
SPRINGFIELD      N/A     48  28  46 NW15      30.01R
$$


USA.gov is the U.S. government's official web portal to all federal, state and local government web resources and services.